ONEWEB-0607, 54671

Orbit data source: Space-Track

ONEWEB-0607, 54671 is a payload satellite owned by One Web (NAA) (UK) in LEO that was launched on Thu, 08 Dec 2022 UTC via an FALCON 9 launch vehicle from the Air Force Eastern Test Range (AFETR). Payload-class satellites include a variety of spacecraft equipped with specific instruments for various scientific and technological missions. These include communications satellites like Starlink; space stations such as the ISS; scientific satellites like the Hubble; Earth observation satellites from companies like Planet Labs, Umbra, and HawkEye 360; GPS; miniature CubeSats for education and research; and military/defense satellites.

Loading next visibility...
Identifier
54671, 2022-166AF
Orbit
LEO
Country
Flag of UKUK
Related business
Manufacturer
One Web
Mission
Operational Commercial Communications
Bus & Motor
ARROW, Unknown motor
Mass
148 kg wet, ~140 kg dry
Launch date (UTC)
2022-12-08 (4 years ago)
Launch vehicle
FALCON 9
Launch site
Air Force Eastern Test Range (AFETR)
Object type
Payload
Rocket body
Debris
Shape & HBR
Trap Box + 2 Pan, 6.7 m
Radar Cross Section
3.464 m², Large (>1 m²)

Expand to show TLE details & history
Last TLE update: 2 days ago

TLE from 2 days ago
0 ONEWEB-0607
1 54671U 22166AF  26171.45681286  .00000072  00000-0  14235-3 0  9994
2 54671  87.9258 243.3200 0001942  95.2148 264.9208 13.21824699171974
Epoch: 2026-06-20T10:57Z
TLE epoch observation values (Epoch: 2026-06-20T10:57:48.631Z)
Latitude
0.00004°
Longitude
170.1962°
Altitude
1,180.793 km
Speed
7.263 km/s
True Right ascension
16h 13m 16s
True Declination
0° 00' 00"
Sunlit
Object was in full shadow at epoch
Visualization orbit readout
Latitude
Unknown
Longitude
Unknown
Altitude
Unknown
Speed
Unknown
Apparent Right ascension
Unknown
Apparent Declination
Unknown
Sunlit
N/A
Visualization observer readout
Local Sidereal Time
21:40:18
Azimuth
Unknown
Elevation
Unknown
Doppler factor
Unknown
Orbital elements
Apogee altitude
1,176.328 km
Perigee altitude
1,173.394 km
Semi-major axis
7,552.998 km
Eccentricity
0.00019
Inclination
87.9258°
RAAN
243.32°
Arg. of periapsis
95.2148°
True anomaly
264.89863°
Mean anomaly
264.9208°
Eccentric anomaly
264.90972°
Mean motion
3.30647 °/min
Orbital period
108.88 mins
BSTAR
0.00014235
Loading maneuver chart data...
Computing Atmospheric mass density...
Loading historical data...
Loading historical data...
Loading historical data...
Loading historical data...
Loading historical data...
Loading historical data...
Loading historical data...

Documentation

Showing up to 5 results
|